Previsão horária em Aberlour

Hoje, 17 Abril, Sábado

Tempo Temperatura Precipitação Vento Pressão Humidade
00:00 +4°C° 0 mm 2 m/s 755 mmHg 76%
01:00 +4°C° 0 mm 2 m/s 755 mmHg 74%
02:00 +4°C° 0 mm 2 m/s 755 mmHg 73%
03:00 +4°C° 0 mm 2 m/s 755 mmHg 71%
04:00 +4°C° 0 mm 2 m/s 755 mmHg 70%
05:00 +4°C° 0 mm 2 m/s 755 mmHg 69%
06:00 +5°C° 0 mm 1 m/s 754 mmHg 68%
07:00 +7°C° 0 mm 1 m/s 754 mmHg 61%
08:00 +9°C° 0 mm 1 m/s 754 mmHg 54%
09:00 +11°C° 0 mm 1 m/s 754 mmHg 46%
10:00 +12°C° 0 mm 1 m/s 754 mmHg 43%
11:00 +13°C° 0 mm 2 m/s 753 mmHg 40%
12:00 +14°C° 0 mm 2 m/s 753 mmHg 37%
13:00 +13°C° 0 mm 3 m/s 752 mmHg 38%
14:00 +13°C° 0 mm 3 m/s 752 mmHg 40%
15:00 +13°C° 0 mm 4 m/s 751 mmHg 41%
16:00 +12°C° 0 mm 4 m/s 751 mmHg 46%
17:00 +11°C° 0 mm 4 m/s 751 mmHg 51%
18:00 +10°C° 0 mm 4 m/s 751 mmHg 56%
19:00 +8°C° 0 mm 4 m/s 751 mmHg 65%
20:00 +6°C° 0 mm 4 m/s 751 mmHg 73%
21:00 +4°C° 0 mm 3 m/s 751 mmHg 82%
22:00 +4°C° 0 mm 4 m/s 751 mmHg 84%
23:00 +3°C° 0 mm 4 m/s 751 mmHg 87%

Amanhã, 18 Abril, Domingo

Tempo Temperatura Precipitação Vento Pressão Humidade
00:00 +1°C° 0 mm 4 m/s 750 mmHg 89%
01:00 +1°C° 0 mm 4 m/s 750 mmHg 89%
02:00 +2°C° 0 mm 3 m/s 750 mmHg 90%
03:00 +2°C° 0 mm 3 m/s 749 mmHg 90%
04:00 +2°C° 0 mm 3 m/s 749 mmHg 86%
05:00 +3°C° 0 mm 3 m/s 749 mmHg 83%
06:00 +4°C° 0 mm 3 m/s 749 mmHg 80%
07:00 +5°C° 0 mm 3 m/s 749 mmHg 71%
08:00 +6°C° 0 mm 4 m/s 749 mmHg 62%
09:00 +8°C° 0 mm 4 m/s 749 mmHg 54%
10:00 +8°C° 0 mm 4 m/s 749 mmHg 56%
11:00 +8°C° 0 mm 4 m/s 749 mmHg 58%
12:00 +9°C° 0 mm 3 m/s 749 mmHg 61%
13:00 +9°C° 0 mm 3 m/s 749 mmHg 66%
14:00 +8°C° 0 mm 3 m/s 749 mmHg 72%
15:00 +8°C° 0 mm 3 m/s 749 mmHg 78%
16:00 +8°C° 0 mm 3 m/s 750 mmHg 80%
17:00 +7°C° 0 mm 2 m/s 750 mmHg 82%
18:00 +7°C° 0 mm 2 m/s 750 mmHg 85%
19:00 +7°C° 0 mm 2 m/s 750 mmHg 86%
20:00 +6°C° 0 mm 2 m/s 750 mmHg 87%
21:00 +6°C° 0 mm 2 m/s 750 mmHg 88%
22:00 +6°C° 0 mm 2 m/s 750 mmHg 88%
23:00 +6°C° 0 mm 2 m/s 750 mmHg 89%

Depois de amanhã, 19 Abril, Segunda-feira

Tempo Temperatura Precipitação Vento Pressão Humidade
00:00 +5°C° 0 mm 2 m/s 750 mmHg 89%
01:00 +5°C° 0 mm 2 m/s 749 mmHg 90%
02:00 +4°C° 0 mm 2 m/s 749 mmHg 90%
03:00 +4°C° 0 mm 2 m/s 749 mmHg 90%
04:00 +3°C° 0 mm 3 m/s 749 mmHg 90%
05:00 +3°C° 0 mm 3 m/s 749 mmHg 90%
06:00 +3°C° 0 mm 3 m/s 748 mmHg 90%
07:00 +5°C° 0 mm 3 m/s 748 mmHg 79%
08:00 +8°C° 0 mm 4 m/s 748 mmHg 68%
09:00 +11°C° 0 mm 4 m/s 748 mmHg 56%
10:00 +12°C° 0 mm 4 m/s 748 mmHg 52%
11:00 +13°C° 0 mm 4 m/s 748 mmHg 48%
12:00 +14°C° 0 mm 4 m/s 747 mmHg 44%
13:00 +14°C° 0 mm 4 m/s 747 mmHg 44%
14:00 +14°C° 0 mm 4 m/s 747 mmHg 44%
15:00 +14°C° 0 mm 4 m/s 746 mmHg 44%
16:00 +13°C° 0 mm 4 m/s 746 mmHg 49%
17:00 +13°C° 0 mm 3 m/s 746 mmHg 55%
18:00 +12°C° 0 mm 3 m/s 746 mmHg 60%
19:00 +10°C° 0 mm 3 m/s 747 mmHg 67%
20:00 +9°C° 0 mm 2 m/s 747 mmHg 75%
21:00 +7°C° 0 mm 2 m/s 747 mmHg 82%
22:00 +7°C° 0 mm 2 m/s 747 mmHg 84%
23:00 +7°C° 0 mm 2 m/s 747 mmHg 85%

20 Abril, Terça-feira

Tempo Temperatura Precipitação Vento Pressão Humidade
00:00 +7°C° 0 mm 1 m/s 747 mmHg 87%
01:00 +7°C° 0 mm 1 m/s 747 mmHg 87%
02:00 +7°C° 0 mm 1 m/s 746 mmHg 87%
03:00 +7°C° 0 mm 1 m/s 746 mmHg 88%
04:00 +7°C° 0.1 mm 1 m/s 746 mmHg 87%
05:00 +7°C° 0.1 mm 1 m/s 746 mmHg 87%
06:00 +7°C° 0.1 mm 1 m/s 746 mmHg 87%
07:00 +6°C° 0.4 mm 2 m/s 747 mmHg 89%
08:00 +6°C° 0.4 mm 2 m/s 747 mmHg 90%
09:00 +5°C° 0.4 mm 3 m/s 747 mmHg 91%
10:00 +5°C° 0.5 mm 3 m/s 747 mmHg 91%
11:00 +4°C° 0.5 mm 3 m/s 747 mmHg 91%
12:00 +4°C° 0.5 mm 3 m/s 747 mmHg 91%
13:00 +5°C° 0.2 mm 4 m/s 748 mmHg 81%
14:00 +5°C° 0.2 mm 5 m/s 748 mmHg 71%
15:00 +5°C° 0.2 mm 6 m/s 748 mmHg 60%
16:00 +5°C° 0 mm 6 m/s 748 mmHg 60%
17:00 +5°C° 0 mm 6 m/s 748 mmHg 60%
18:00 +4°C° 0 mm 6 m/s 748 mmHg 60%
19:00 +3°C° 0 mm 5 m/s 749 mmHg 66%
20:00 +2°C° 0 mm 5 m/s 749 mmHg 72%
21:00 +1°C° 0 mm 4 m/s 750 mmHg 77%
22:00 +1°C° 0 mm 4 m/s 750 mmHg 78%
23:00 0°C° 0 mm 4 m/s 750 mmHg 80%

21 Abril, Quarta-feira

Tempo Temperatura Precipitação Vento Pressão Humidade
00:00 0°C° 0 mm 4 m/s 750 mmHg 81%
01:00 -1°C° 0 mm 4 m/s 750 mmHg 82%
02:00 -1°C° 0 mm 4 m/s 751 mmHg 83%
03:00 -1°C° 0 mm 4 m/s 751 mmHg 85%
04:00 -1°C° 0 mm 4 m/s 751 mmHg 83%
05:00 0°C° 0 mm 4 m/s 751 mmHg 81%
06:00 0°C° 0 mm 4 m/s 751 mmHg 79%
07:00 +1°C° 0 mm 4 m/s 751 mmHg 72%
08:00 +3°C° 0 mm 5 m/s 751 mmHg 64%
09:00 +5°C° 0 mm 5 m/s 752 mmHg 56%
10:00 +5°C° 0 mm 6 m/s 751 mmHg 53%
11:00 +7°C° 0 mm 6 m/s 751 mmHg 50%
12:00 +8°C° 0 mm 6 m/s 751 mmHg 47%
13:00 +8°C° 0 mm 5 m/s 751 mmHg 48%
14:00 +8°C° 0 mm 5 m/s 751 mmHg 48%
15:00 +8°C° 0 mm 5 m/s 752 mmHg 48%
16:00 +7°C° 0 mm 5 m/s 752 mmHg 53%
17:00 +7°C° 0 mm 5 m/s 752 mmHg 57%
18:00 +6°C° 0 mm 4 m/s 752 mmHg 61%
19:00 +5°C° 0 mm 3 m/s 752 mmHg 70%
20:00 +4°C° 0 mm 2 m/s 753 mmHg 80%
21:00 +3°C° 0 mm 2 m/s 753 mmHg 89%
22:00 +3°C° 0 mm 1 m/s 753 mmHg 90%
23:00 +3°C° 0 mm 1 m/s 753 mmHg 91%

22 Abril, Quinta-feira

Tempo Temperatura Precipitação Vento Pressão Humidade
00:00 +3°C° 0 mm 1 m/s 753 mmHg 92%
01:00 +2°C° 0 mm 1 m/s 753 mmHg 92%
02:00 +2°C° 0 mm 1 m/s 753 mmHg 92%
03:00 +2°C° 0 mm 1 m/s 753 mmHg 92%
04:00 +2°C° 0 mm 1 m/s 753 mmHg 90%
05:00 +3°C° 0 mm 1 m/s 753 mmHg 88%
06:00 +3°C° 0 mm 1 m/s 753 mmHg 86%
07:00 +5°C° 0 mm 1 m/s 753 mmHg 76%
08:00 +7°C° 0 mm 1 m/s 753 mmHg 66%
09:00 +9°C° 0 mm 1 m/s 753 mmHg 56%
10:00 +11°C° 0 mm 1 m/s 753 mmHg 52%
11:00 +12°C° 0 mm 2 m/s 753 mmHg 47%
12:00 +13°C° 0 mm 2 m/s 753 mmHg 43%
13:00 +12°C° 0 mm 3 m/s 752 mmHg 44%
14:00 +13°C° 0 mm 3 m/s 752 mmHg 45%
15:00 +13°C° 0 mm 4 m/s 752 mmHg 46%
16:00 +12°C° 0 mm 4 m/s 752 mmHg 51%
17:00 +11°C° 0 mm 4 m/s 752 mmHg 57%
18:00 +10°C° 0 mm 3 m/s 752 mmHg 63%
19:00 +9°C° 0 mm 3 m/s 752 mmHg 70%
20:00 +7°C° 0 mm 3 m/s 752 mmHg 78%
21:00 +5°C° 0 mm 2 m/s 752 mmHg 86%
22:00 +5°C° 0 mm 2 m/s 752 mmHg 87%
23:00 +4°C° 0 mm 2 m/s 752 mmHg 88%
Mostrar mais